Tracking 29494 objects as of 8-Sep-2024
HD Live streaming from Space Station
objects crossing your sky now

STARLINK-3189

Track STARLINK-3189 now!
10-day predictions
STARLINK-3189 is classified as:


NORAD ID: 51464
Int'l Code: 2022-010J
Perigee: 545.9 km
Apogee: 547.8 km
Inclination: 53.2 °
Period: 95.4 minutes
Semi major axis: 6917 km
RCS: Unknown
Launch date: February 3, 2022
Source: United States (US)
Launch site: AIR FORCE EASTERN TEST RANGE (AFETR)
Your satellite tracking list
Your tracking list is empty




NASA's NSSDC Master Catalog

Two Line Element Set (TLE):
1 51464U 22010J   24251.62224430  .00001947  00000-0  14036-3 0  9990
2 51464  53.2157 219.4920 0001371  89.5723 270.5426 15.08853308144532
Source of the keplerian elements: AFSPC